This demonstration page uses our WeatherBlox Daily Observations layout. Learn more.

Left ArrowRight Arrow

39.51506, -84.39828

Hourly Observations for May 7, 2019

Temp ( °F °C ) Dew Point ( °F °C ) Humidity (%) Winds ( mph kmh ) Pressure ( in mb ) Visibility ( mi km ) Precip ( " mm )
12:15 am 00:15 Clear 54 12 52 11.1 94 94 N N/A 30.10 1019 10 16 N/A
12:35 am 00:35 Clear 54 12.3 52 11.3 94 94 N N/A 30.10 1019 10 16 N/A
12:55 am 00:55 Clear 54 12 52 11.2 95 95 N N/A 30.10 1019 10 16 N/A
1:15 am 01:15 Clear 54 12 52 11.2 95 95 N N/A 30.10 1019 10 16 N/A
1:35 am 01:35 Clear 53 11.9 52 11.2 96 96 N N/A 30.09 1019 10 16 N/A
1:55 am 01:55 Clear 53 11.7 52 11 96 96 N N/A 30.09 1019 10 16 N/A
2:15 am 02:15 Clear 53 11.5 52 10.9 96 96 N N/A 30.10 1019 10 16 N/A
2:35 am 02:35 Clear 52 11.3 51 10.8 97 97 N N/A 30.10 1019 10 16 N/A
2:55 am 02:55 Clear 52 11.1 51 10.5 96 96 N N/A 30.09 1019 10 16 N/A
3:15 am 03:15 Clear 52 11.2 51 10.6 96 96 N N/A 30.09 1019 10 16 N/A
3:35 am 03:35 Clear 51 10.3 50 9.8 97 97 N N/A 30.09 1019 10 16 N/A
3:55 am 03:55 Clear 51 10.3 49 9.6 95 95 N N/A 30.09 1019 10 16 N/A
4:15 am 04:15 Clear 51 10.5 50 10 97 97 N N/A 30.09 1019 10 16 N/A
4:35 am 04:35 Clear 51 10.4 50 9.9 97 97 N N/A 30.09 1019 10 16 N/A
4:55 am 04:55 Clear 51 10.3 50 9.9 97 97 N N/A 30.10 1019 10 16 N/A
5:15 am 05:15 Clear 50 10.1 50 9.8 98 98 N N/A 30.11 1020 10 16 N/A
5:35 am 05:35 Clear 50 10.1 50 9.8 98 98 N N/A 30.10 1019 10 16 N/A
5:55 am 05:55 Clear 49 9.6 49 9.2 97 97 N N/A 30.11 1020 10 16 N/A
6:15 am 06:15 Mostly Cloudy with Mist and Fog 49 9.6 49 9.4 99 99 N N/A 30.11 1020 1 2 N/A
6:35 am 06:35 Sunny with Mist and Fog 49 9.6 49 9.3 98 98 N N/A 30.12 1020 3 5 N/A
6:55 am 06:55 Sunny 49 9.4 49 9.2 99 99 N N/A 30.13 1020 7 11 N/A
7:15 am 07:15 Sunny 50 9.9 49 9.6 98 98 N N/A 30.14 1021 10 16 N/A
7:35 am 07:35 Sunny 51 10.7 51 10.4 98 98 N N/A 30.15 1021 7 11 N/A
7:55 am 07:55 Sunny 54 12 52 11.3 96 96 N N/A 30.16 1021 10 16 N/A
8:15 am 08:15 Sunny 56 13.4 53 11.8 90 90 N N/A 30.16 1021 10 16 N/A
8:35 am 08:35 Sunny 58 14.2 54 12.2 88 88 N N/A 30.15 1021 10 16 N/A
8:55 am 08:55 Sunny 59 15.2 54 12.4 84 84 N N/A 30.16 1021 10 16 N/A
9:15 am 09:15 Sunny 62 16.7 55 12.9 78 78 N N/A 30.15 1021 10 16 N/A
9:35 am 09:35 Sunny 65 18.2 55 12.5 70 70 SSW 3 6 30.15 1021 10 16 N/A
9:55 am 09:55 Sunny 67 19.6 55 12.6 64 64 SW 5 7 30.15 1021 10 16 N/A
10:15 am 10:15 Sunny 68 20 55 12.7 63 63 SSW 5 7 30.14 1021 10 16 N/A
10:35 am 10:35 Sunny 69 20.7 55 12.6 60 60 SSW 7 11 30.15 1021 10 16 N/A
10:55 am 10:55 Sunny 71 21.6 56 13.2 59 59 SW 8 13 30.15 1021 10 16 N/A
11:15 am 11:15 Sunny 72 22.1 56 13.6 59 59 SSW 7 11 30.15 1021 10 16 N/A
11:35 am 11:35 Sunny 73 22.6 56 13.3 56 56 SSW 5 7 30.15 1021 10 16 N/A
11:55 am 11:55 Sunny 73 23 55 12.6 52 52 SSW 3 6 30.14 1021 10 16 N/A
12:15 pm 12:15 Sunny 75 23.7 55 12.5 50 50 W 5 7 30.13 1020 10 16 N/A
12:35 pm 12:35 Hazy 74 23.6 53 11.9 48 48 N N/A 30.12 1020 5 8 N/A
12:55 pm 12:55 Sunny 76 24.2 52 11.2 44 44 SW 7 11 30.11 1020 10 16 N/A
1:15 pm 13:15 Partly Cloudy 76 24.7 53 11.8 45 45 WSW 5 7 30.10 1019 10 16 N/A
1:35 pm 13:35 Sunny 75 24.1 53 11.4 45 45 W 7 11 30.11 1019 10 16 N/A
1:55 pm 13:55 Partly Cloudy 77 25 53 11.6 43 43 SSE 6 9 30.09 1019 10 16 N/A
2:15 pm 14:15 Sunny 77 25.2 53 11.4 42 42 SSW 6 9 30.08 1019 10 16 N/A
2:35 pm 14:35 Sunny 78 25.5 52 10.9 40 40 WSW 6 9 30.08 1019 10 16 N/A
2:55 pm 14:55 Sunny 78 25.6 52 11.1 40 40 SW 7 11 30.07 1018 10 16 N/A
3:15 pm 15:15 Mostly Cloudy 78 25.4 51 10.7 40 40 N N/A 30.07 1018 10 16 N/A
3:35 pm 15:35 Cloudy 79 26.1 51 10.8 38 38 W 3 6 30.06 1018 10 16 N/A
3:55 pm 15:55 Cloudy 78 25.7 53 11.5 41 41 E 3 6 30.07 1018 10 16 N/A
4:15 pm 16:15 Mostly Cloudy 78 25.6 53 11.9 42 42 NW 7 11 30.06 1018 10 16 N/A
4:35 pm 16:35 Mostly Cloudy 78 25.5 49 9.7 37 37 N N/A 30.06 1018 10 16 N/A
4:55 pm 16:55 Cloudy 78 25.3 53 11.7 43 43 N N/A 30.06 1018 10 16 N/A
5:15 pm 17:15 Cloudy 77 25.2 52 10.9 41 41 N N/A 30.06 1018 10 16 N/A
5:35 pm 17:35 Cloudy 76 24.3 55 12.5 48 48 W 5 7 30.06 1018 10 16 N/A
5:55 pm 17:55 Cloudy 75 24.1 56 13.4 51 51 N N/A 30.07 1018 10 16 N/A
6:15 pm 18:15 Cloudy 74 23.5 60 15.6 61 61 N N/A 30.07 1018 10 16 N/A
6:35 pm 18:35 Cloudy 72 22.3 62 16.7 71 71 N N/A 30.07 1018 10 16 N/A
6:55 pm 18:55 Cloudy 72 22.1 65 18.1 78 78 N N/A 30.07 1018 10 16 N/A
7:15 pm 19:15 Cloudy 72 22.1 58 14.3 61 61 N 8 13 30.07 1018 10 16 N/A
7:35 pm 19:35 Cloudy 71 21.8 58 14.5 63 63 NNE 9 15 30.08 1019 10 16 N/A
7:55 pm 19:55 Cloudy 71 21.6 57 13.9 62 62 N 7 11 30.08 1019 10 16 N/A
8:15 pm 20:15 Cloudy 69 20.6 57 13.9 66 66 N 9 15 30.09 1019 10 16 N/A
8:35 pm 20:35 Cloudy 68 20.1 56 13.6 66 66 NNE 8 13 30.10 1019 10 16 N/A
8:55 pm 20:55 Cloudy 68 19.9 56 13.6 67 67 NE 8 13 30.10 1019 10 16 N/A
9:15 pm 21:15 Cloudy 67 19.4 55 12.8 66 66 NE 12 19 30.12 1020 10 16 N/A
9:35 pm 21:35 Cloudy 66 18.9 55 12.9 68 68 NE 9 15 30.12 1020 10 16 N/A
9:55 pm 21:55 Cloudy 65 18.2 55 12.8 71 71 NNE 9 15 30.13 1020 10 16 N/A
10:15 pm 22:15 Cloudy 64 18 55 12.5 70 70 NE 9 15 30.13 1020 10 16 N/A
10:35 pm 22:35 Cloudy 64 17.5 54 12 70 70 NE 13 20 30.14 1021 10 16 N/A
10:55 pm 22:55 Cloudy 63 17.1 53 11.8 71 71 NE 12 19 30.14 1021 10 16 N/A
11:15 pm 23:15 Mostly Cloudy 62 16.7 52 11.3 71 71 NE 9 15 30.15 1021 10 16 N/A
11:35 pm 23:35 Clear 61 16.3 52 11.2 72 72 NNE 10 17 30.14 1021 10 16 N/A
11:55 pm 23:55 Clear 61 15.9 52 11 73 73 NE 8 13 30.14 1021 10 16 N/A

Powered by AerisWeather